EW6607 Motilla Del Palancar current weather conditions

sailwx.info

Wind from 041 at 4 knots gusting 6

Air temperature 18.9° C
Dewpoint 15.7° C

Last reported at 2020-Jul-14 02:30 UTC.
Time now 2020-Jul-14 03:13 UTC

Location: N 39°34' W 001°55'.
View on Google Maps.

See reports from other nearby stations

  
Tides and Currents Weather Stations Pressure Air Temp Water Temp Dewpoint Dewpoint Depression Visibility Wind Speed Wind Dir Waves Ship Positions
date/time (UTC)wind fromknots sea level pressurealtimeterstation pressurevisibilityair tempwater tempwave heightnotes
2020-Jul-14 02:30 041 4 gusting 6 18.9
2020-Jul-14 02:20 009 1 gusting 6 18.9
2020-Jul-14 02:10 015 3 gusting 6 18.9
2020-Jul-14 02:00 029 18.9
2020-Jul-14 01:50 031 1 gusting 6 18.9
2020-Jul-14 01:40 035 3 gusting 6 18.9
2020-Jul-14 01:30 044 3 gusting 7 18.9
2020-Jul-14 01:20 043 1 gusting 6 18.9
2020-Jul-14 01:10 036 1 gusting 6 19.4
2020-Jul-14 01:00 012 3 gusting 7 19.4
2020-Jul-14 00:50 033 4 gusting 8 19.4
2020-Jul-14 00:40 036 4 gusting 8 19.4
2020-Jul-14 00:30 032 4 gusting 9 19.4
2020-Jul-14 00:20 048 3 gusting 9 19.4
2020-Jul-14 00:10 359 3 gusting 6 19.4
2020-Jul-14 00:00 346 1 gusting 8 20.0
2020-Jul-13 23:52 010 1 gusting 5 20.0
2020-Jul-13 23:40 047 0 gusting 6 20.0
2020-Jul-13 23:30 073 1 gusting 7 20.0
2020-Jul-13 23:20 039 1 gusting 6 20.0
2020-Jul-13 23:10 050 1 gusting 6 20.6
2020-Jul-13 23:00 045 3 gusting 6 20.6
2020-Jul-13 22:50 040 2 gusting 6 20.6
2020-Jul-13 22:40 039 1 gusting 6 21.1
2020-Jul-13 22:30 051 1 gusting 6 21.1
2020-Jul-13 22:20 046 2 gusting 6 21.7
2020-Jul-13 22:10 048 2 gusting 6 21.7
2020-Jul-13 22:04 071 3 gusting 6 21.7
2020-Jul-13 21:50 206 1 gusting 6 22.2
2020-Jul-13 21:40 087 2 gusting 7 22.2
2020-Jul-13 21:30 078 2 gusting 6 22.2
2020-Jul-13 21:20 122 2 gusting 6 22.8
2020-Jul-13 21:10 073 3 gusting 9 22.8
2020-Jul-13 21:00 130 3 gusting 14 22.8
2020-Jul-13 20:50 108 6 gusting 17 23.3
2020-Jul-13 20:40 136 5 gusting 14 23.9
2020-Jul-13 20:30 126 9 gusting 14 24.4
2020-Jul-13 20:20 111 9 gusting 13 25.0
2020-Jul-13 20:10 118 9 gusting 12 25.0
2020-Jul-13 20:00 103 6 gusting 9 25.6
2020-Jul-13 19:50 103 3 gusting 12 26.1
2020-Jul-13 19:40 105 5 gusting 11 26.1
2020-Jul-13 19:30 115 4 gusting 8 26.7
2020-Jul-13 19:20 107 5 gusting 10 27.2
2020-Jul-13 19:10 112 4 gusting 6 27.8
2020-Jul-13 19:00 098 4 gusting 6 28.3
2020-Jul-13 18:50 105 3 gusting 6 28.9
2020-Jul-13 18:40 090 1 gusting 5 28.9
2020-Jul-13 18:30 094 3 gusting 6 29.4
2020-Jul-13 18:20 122 3 gusting 6 29.4
2020-Jul-13 18:10 097 3 gusting 6 29.4
2020-Jul-13 18:00 083 3 gusting 6 30.0
2020-Jul-13 17:50 090 30.0
2020-Jul-13 17:40 083 1 gusting 6 30.6
2020-Jul-13 17:30 090 30.0
2020-Jul-13 17:20 090 3 gusting 6 30.0
2020-Jul-13 17:10 066 2 gusting 8 30.6
2020-Jul-13 17:00 087 30.6
2020-Jul-13 16:50 073 1 gusting 6 30.6
2020-Jul-13 16:40 130 4 gusting 9 30.0
2020-Jul-13 16:30 125 30.0
2020-Jul-13 16:20 135 0 gusting 6 30.6
2020-Jul-13 16:10 128 6 gusting 7 31.1
2020-Jul-13 16:00 123 1 gusting 6 30.6
2020-Jul-13 15:50 121 3 gusting 6 30.6
2020-Jul-13 15:40 091 3 gusting 6 30.0
2020-Jul-13 15:30 135 3 gusting 7 30.0
2020-Jul-13 15:20 132 3 gusting 8 30.0
2020-Jul-13 15:10 135 3 gusting 7 30.0
2020-Jul-13 15:00 148 5 gusting 13 29.4
2020-Jul-13 14:50 147 1 gusting 11 29.4
2020-Jul-13 14:40 141 6 gusting 9 29.4
2020-Jul-13 14:30 135 6 gusting 10 30.0
2020-Jul-13 14:20 093 6 gusting 9 29.4
2020-Jul-13 14:10 062 6 gusting 9 28.9
2020-Jul-13 14:00 086 1 gusting 11 28.9
2020-Jul-13 13:50 148 2 gusting 13 28.9
2020-Jul-13 13:40 178 2 gusting 9 29.4
2020-Jul-13 13:30 214 4 gusting 12 28.9
2020-Jul-13 13:20 141 2 gusting 13 28.9
2020-Jul-13 13:10 154 4 gusting 10 28.3
2020-Jul-13 13:00 132 3 gusting 10 28.3
2020-Jul-13 12:50 162 3 gusting 13 27.8
2020-Jul-13 12:40 252 6 gusting 10 28.3
2020-Jul-13 12:30 214 6 gusting 9 27.8
2020-Jul-13 12:20 116 3 gusting 13 27.8
2020-Jul-13 12:10 084 5 gusting 10 27.8
2020-Jul-13 12:00 083 5 gusting 10 27.8
2020-Jul-13 11:50 101 4 gusting 8 27.8
2020-Jul-13 11:40 050 6 gusting 10 27.8
2020-Jul-13 11:30 089 1 gusting 13 27.2
2020-Jul-13 11:20 060 6 gusting 12 27.2
2020-Jul-13 11:10 089 6 gusting 12 26.7
2020-Jul-13 11:00 073 6 gusting 13 26.7
2020-Jul-13 10:50 056 3 gusting 13 26.1
2020-Jul-13 10:40 081 4 gusting 11 26.1
2020-Jul-13 10:30 059 6 gusting 12 25.6
2020-Jul-13 10:20 072 3 gusting 13 25.0
2020-Jul-13 10:10 050 3 gusting 11 25.0
2020-Jul-13 10:00 049 6 gusting 13 23.9
2020-Jul-13 09:50 067 5 gusting 10 23.3
2020-Jul-13 09:40 039 6 gusting 10 22.8
2020-Jul-13 09:30 074 4 gusting 10 22.8
2020-Jul-13 09:20 092 3 gusting 9 22.8
2020-Jul-13 09:10 045 2 gusting 6 22.2
2020-Jul-13 09:00 073 3 gusting 7 22.2
2020-Jul-13 08:50 056 2 gusting 7 21.7
2020-Jul-13 08:40 093 3 gusting 9 21.7
2020-Jul-13 08:30 043 6 gusting 10 21.7
2020-Jul-13 08:20 053 5 gusting 8 21.7
2020-Jul-13 08:10 021 5 gusting 6 21.1
2020-Jul-13 08:00 019 3 gusting 7 20.6
2020-Jul-13 07:50 046 3 gusting 6 20.6
2020-Jul-13 07:40 015 1 gusting 6 20.6
2020-Jul-13 07:30 020 2 gusting 6 20.0
2020-Jul-13 07:20 001 3 gusting 6 19.4
2020-Jul-13 07:10 046 3 gusting 6 19.4
2020-Jul-13 07:00 045 1 gusting 4 18.9
2020-Jul-13 06:50 060 1 gusting 5 18.9
2020-Jul-13 06:40 034 1 gusting 5 18.3
2020-Jul-13 06:30 056 2 gusting 6 17.8
2020-Jul-13 06:20 122 17.8
2020-Jul-13 06:10 045 1 gusting 6 17.8
2020-Jul-13 06:00 050 3 gusting 6 17.2
2020-Jul-13 05:50 045 2 gusting 5 17.2
2020-Jul-13 05:40 043 4 gusting 5 17.2
2020-Jul-13 05:30 043 3 gusting 5 16.7
2020-Jul-13 05:20 075 2 gusting 5 16.7
2020-Jul-13 05:10 350 1 gusting 5 16.7
2020-Jul-13 05:00 020 1 gusting 6 16.7
2020-Jul-13 04:50 002 1 gusting 3 16.1
2020-Jul-13 04:40 039 0 gusting 4 16.1
2020-Jul-13 04:30 024 3 gusting 4 16.1
2020-Jul-13 04:20 019 1 gusting 5 16.7
2020-Jul-13 04:10 001 2 gusting 3 16.7
2020-Jul-13 04:00 001 1 gusting 4 16.7
2020-Jul-13 03:50 001 0 gusting 4 16.7
2020-Jul-13 03:40 027 0 gusting 3 16.7
2020-Jul-13 03:30 046 16.7
2020-Jul-13 03:20 030 0 gusting 3 16.7
2020-Jul-13 03:10 037 1 gusting 3 16.7
2020-Jul-13 03:00 038 1 gusting 3 16.7
2020-Jul-13 02:50 358 2 gusting 3 16.7
2020-Jul-13 02:40 349 0 gusting 4 16.7
2020-Jul-13 02:30 008 2 gusting 3 16.7
2020-Jul-13 02:20 352 1 gusting 3 16.7
2020-Jul-13 02:10 333 2 gusting 3 16.7
2020-Jul-13 02:00 005 1 gusting 6 17.2
2020-Jul-13 01:50 047 1 gusting 4 17.2
2020-Jul-13 01:40 041 2 gusting 3 17.2
2020-Jul-13 01:30 047 0 gusting 6 17.2
2020-Jul-13 01:20 028 2 gusting 6 17.2
2020-Jul-13 01:10 356 2 gusting 4 17.8
2020-Jul-13 01:00 322 17.8
2020-Jul-13 00:50 316 17.8
2020-Jul-13 00:40 338 2 gusting 4 17.8
2020-Jul-13 00:30 034 1 gusting 3 17.8
2020-Jul-13 00:20 072 1 gusting 3 17.8
2020-Jul-13 00:10 122 0 gusting 3 17.8
2020-Jul-13 00:00 159 1 gusting 8 17.8
2020-Jul-12 23:50 144 2 gusting 6 17.8
2020-Jul-12 23:40 142 3 gusting 7 17.8
2020-Jul-12 23:30 138 3 gusting 7 18.3
2020-Jul-12 23:20 144 3 gusting 10 18.3
2020-Jul-12 23:10 156 5 gusting 9 18.3
2020-Jul-12 23:00 154 6 gusting 7 18.9
2020-Jul-12 22:50 138 2 gusting 5 18.9
2020-Jul-12 22:40 124 1 gusting 9 18.9
2020-Jul-12 22:30 126 6 gusting 9 19.4
2020-Jul-12 22:20 056 1 gusting 6 18.9
2020-Jul-12 22:10 052 1 gusting 7 18.9
2020-Jul-12 22:00 046 1 gusting 9 18.9
2020-Jul-12 21:50 030 5 gusting 13 18.9
2020-Jul-12 21:40 046 6 gusting 13 18.9
2020-Jul-12 21:30 042 8 gusting 12 18.9
2020-Jul-12 21:20 099 6 gusting 9 18.9
2020-Jul-12 21:10 135 2 gusting 10 19.4
2020-Jul-12 21:00 140 3 gusting 12 19.4
2020-Jul-12 20:50 116 3 gusting 9 19.4
2020-Jul-12 20:40 167 3 gusting 9 20.0
2020-Jul-12 20:30 092 5 gusting 11 20.0
2020-Jul-12 20:20 055 4 gusting 13 20.6
2020-Jul-12 20:10 163 6 gusting 10 21.1
2020-Jul-12 20:00 282 3 gusting 6 21.7
2020-Jul-12 19:50 354 1 gusting 6 21.7
2020-Jul-12 19:40 001 3 gusting 4 21.7
2020-Jul-12 19:30 356 0 gusting 6 21.7
2020-Jul-12 19:20 356 3 gusting 6 22.2
2020-Jul-12 19:10 012 3 gusting 9 22.2
2020-Jul-12 19:00 004 1 gusting 9 22.2
2020-Jul-12 18:50 151 3 gusting 12 22.2
2020-Jul-12 18:40 136 6 gusting 12 22.8
2020-Jul-12 18:30 058 4 gusting 7 22.8
2020-Jul-12 18:20 059 6 gusting 12 22.8
2020-Jul-12 18:10 058 8 gusting 13 22.8
2020-Jul-12 18:00 046 8 gusting 13 22.8
2020-Jul-12 17:50 082 6 gusting 14 22.8
2020-Jul-12 17:40 072 10 gusting 18 22.8
2020-Jul-12 17:30 053 9 gusting 14 22.8
2020-Jul-12 17:20 050 6 gusting 13 22.8
2020-Jul-12 17:10 044 6 gusting 14 22.8
2020-Jul-12 17:00 038 3 gusting 13 22.8
2020-Jul-12 16:50 054 6 gusting 13 22.8
2020-Jul-12 16:40 049 2 gusting 11 22.2
2020-Jul-12 16:30 127 6 gusting 17 22.2
2020-Jul-12 16:20 119 7 gusting 13 22.8
2020-Jul-12 16:10 111 1 gusting 12 22.8
2020-Jul-12 16:00 129 6 gusting 14 22.8
2020-Jul-12 15:50 111 6 gusting 14 22.8
2020-Jul-12 15:40 116 6 gusting 13 22.8
2020-Jul-12 15:30 043 2 gusting 13 22.8
2020-Jul-12 15:20 036 9 gusting 15 22.2
2020-Jul-12 15:10 052 9 gusting 16 22.2
2020-Jul-12 15:00 077 9 gusting 19 22.2
2020-Jul-12 14:50 079 14 gusting 23 22.2
2020-Jul-12 14:40 117 6 gusting 13 22.2
2020-Jul-12 14:30 135 1 gusting 11 22.2
2020-Jul-12 14:20 128 6 gusting 15 22.2
2020-Jul-12 14:10 134 9 gusting 19 22.8
2020-Jul-12 14:00 125 9 gusting 17 22.8
2020-Jul-12 13:50 130 13 gusting 23 22.8
2020-Jul-12 13:40 124 14 gusting 23 22.2
2020-Jul-12 13:30 130 15 gusting 19 22.8
2020-Jul-12 13:20 046 6 gusting 7 22.8
2020-Jul-12 13:10 023 3 gusting 6 22.8
2020-Jul-12 13:00 078 4 gusting 8 22.8
2020-Jul-12 12:50 283 1 gusting 3 23.3
2020-Jul-12 12:40 248 1 gusting 8 23.9
2020-Jul-12 12:30 223 6 gusting 8 24.4
2020-Jul-12 12:20 239 3 gusting 6 25.0
2020-Jul-12 12:10 162 0 gusting 6 25.0
2020-Jul-12 12:00 130 1 gusting 11 24.4
2020-Jul-12 11:50 122 5 gusting 9 25.6
2020-Jul-12 11:40 181 5 gusting 10 25.6
2020-Jul-12 11:30 151 6 gusting 10 26.1
2020-Jul-12 11:20 115 3 gusting 8 26.7
2020-Jul-12 11:10 137 3 gusting 10 26.7
2020-Jul-12 11:00 137 1 gusting 9 27.2
2020-Jul-12 10:50 162 4 gusting 10 26.7
2020-Jul-12 10:40 159 1 gusting 8 26.7
2020-Jul-12 10:30 284 0 gusting 9 27.2
2020-Jul-12 10:20 102 5 gusting 6 26.1
2020-Jul-12 10:10 108 2 gusting 7 25.6
2020-Jul-12 10:00 061 1 gusting 9 26.1
2020-Jul-12 09:50 103 4 gusting 8 26.7
2020-Jul-12 09:40 047 0 gusting 6 25.6
2020-Jul-12 09:30 043 1 gusting 8 25.6
2020-Jul-12 09:20 041 3 gusting 9 24.4
2020-Jul-12 09:10 016 3 gusting 10 24.4
2020-Jul-12 09:00 018 5 gusting 10 23.3
2020-Jul-12 08:50 068 6 gusting 9 22.8
2020-Jul-12 08:40 042 4 gusting 13 22.8
2020-Jul-12 08:30 064 6 gusting 10 22.8
2020-Jul-12 08:20 072 0 gusting 9 22.2
2020-Jul-12 08:10 083 7 gusting 9 21.7
2020-Jul-12 08:00 053 3 gusting 10 21.7
2020-Jul-12 07:50 069 2 gusting 10 22.2
2020-Jul-12 07:40 107 3 gusting 10 21.7
2020-Jul-12 07:30 110 3 gusting 13 21.1
2020-Jul-12 07:20 136 3 gusting 10 21.1
2020-Jul-12 07:10 095 3 gusting 10 20.6
2020-Jul-12 07:00 070 3 gusting 13 20.0
2020-Jul-12 06:50 117 4 gusting 11 20.0
2020-Jul-12 06:40 102 1 gusting 12 19.4
2020-Jul-12 06:30 115 3 gusting 13 19.4
2020-Jul-12 06:20 137 5 gusting 9 18.9
2020-Jul-12 06:10 097 1 gusting 10 18.9
2020-Jul-12 06:00 123 4 gusting 9 18.9
2020-Jul-12 05:50 116 3 gusting 6 18.3
2020-Jul-12 05:40 058 1 gusting 8 18.3
2020-Jul-12 05:30 070 4 gusting 10 18.3
2020-Jul-12 05:20 053 7 gusting 10 17.8
2020-Jul-12 05:10 058 2 gusting 8 17.8
2020-Jul-12 05:00 089 4 gusting 7 17.8
2020-Jul-12 04:50 064 3 gusting 7 17.8
2020-Jul-12 04:40 046 6 gusting 9 17.8
2020-Jul-12 04:30 037 2 gusting 9 17.8
2020-Jul-12 04:20 045 4 gusting 8 17.8
2020-Jul-12 04:10 053 3 gusting 9 18.3
2020-Jul-12 04:00 063 4 gusting 9 18.3
2020-Jul-12 03:50 065 4 gusting 13 18.3
2020-Jul-12 03:40 025 11 gusting 14 18.3
2020-Jul-12 03:30 029 3 gusting 9 18.3
2020-Jul-12 03:20 132 4 gusting 10 18.3
2020-Jul-12 03:10 140 6 gusting 9 18.3
2020-Jul-12 03:00 118 2 gusting 9 18.3